Regional Weather Roundup
Issued by NWS Bismarck, ND

Home | Current Version | Previous Version | Text Only | Print | Product List | Glossary On
Versions: 1 2 3 4 5 6 7 8 9 10 11 12 13 14 15 16 17 18 19 20 21 22 23 24 25 26 27 28 29 30 31 32 33 34 35 36 37 38 39 40 41 42 43 44 45 46 47 48 49 50
000
ASUS43 KBIS 241610
RWRBIS

NWR BROADCAST TEXT
NATIONAL WEATHER SERVICE BISMARCK ND
1100 AM CDT MON APR 24 2017

NOTE: "FAIR" INDICATES FEW OR NO CLOUDS BELOW 12,000 FEET WITH NO
SIGNIFICANT WEATHER AND/OR OBSTRUCTIONS TO VISIBILITY.


CITY           SKY/WX    TMP DP  RH WIND       PRES   REMARKS
WILLISTON      CLOUDY    33  27  78 E10       29.73S
MINOT          LGT SNOW  31  27  85 N10       29.72S FOG
MINOT AFB      LGT SNOW  30  27  88 E9        29.72  FOG
BISMARCK       LGT RAIN  35  33  92 N12       29.66F
DICKINSON      CLOUDY    31  30  96 N5        29.63F
GARRISON         N/A     31  29  92 NE5       29.69S
HETTINGER ARPT CLOUDY    36  33  89 NW12      29.64F
JAMESTOWN      LGT RAIN  35  32  88 NE14      29.59F
HAZEN          CLOUDY    32  30  93 NE6       29.70S
LINTON           N/A     36  36 100 N15       29.62F
MANDAN         CLOUDY    32  32 100 N12       29.65F
STANLEY        FLURRIES  28  30 100 E10       29.73F WCI  19
TIOGA          CLOUDY    28  28 100 E12G18    29.72F WCI  18
WATFORD CITY   CLOUDY    32  30  93 E8        29.69F
$$

CITY           SKY/WX    TMP DP  RH WIND       PRES   REMARKS
GRAND FORKS    LGT RAIN  37  34  89 E9        29.68R
GRAND FORKS AF LGTSLEET  32  32 100 N8        29.69R FOG
DEVILS LAKE    LGT SNOW  32  30  93 NE13      29.67F FOG
FARGO          CLOUDY    49  36  61 E8        29.57F
CAVALIER       LGT SNOW  32  32 100 NE9       29.73S VSB 1
GRAFTON        LGT SNOW  32  32 100 E10       29.73R
GWINNER        SUNNY     43  37  81 MISG      29.54S
LANGDON        CLOUDY    32  30  93 NE15G24   29.71S
ROLLA          MIX PCPN  28  23  80 NE20G26   29.72F WCI  15
$$

CITY           SKY/WX    TMP DP  RH WIND       PRES   REMARKS
ABERDEEN       FAIR      53  40  61 NW15      29.53S
MOBRIDGE       CLOUDY    39  34  82 N15       29.56R
BUFFALO          N/A     43  39  86 NW10      29.56F
RAPID CITY     FAIR      50  42  74 N18       29.62R
GLASGOW        CLOUDY    36  32  85 E9        29.69F
SIDNEY         CLOUDY    34  31  88 NE7       29.71
WOLF POINT     CLOUDY    34  32  92 NE9       29.71F
GLENDIVE       CLOUDY    36  34  92 N7        29.68S
MILES CITY     CLOUDY    45  41  86 NE3       29.65S
BAKER          CLOUDY    40  38  93 NW6       29.64S
$$

CITY           SKY/WX    TMP DP  RH WIND       PRES   REMARKS
BILLINGS       FAIR      50  38  63 CALM      29.65F
GREAT FALLS    FAIR      50  33  52 SW10      29.63F
REGINA         CLOUDY    28  23  80 SE18      29.81F WCI  16
ESTEVAN        LGT SNOW  28  25  86 E17G24    29.77F DRFTSNOWWCI  16
$$




USA.gov is the U.S. government's official web portal to all federal, state and local government web resources and services.